Christmas Island, Christmas Island

3:04 AM +07 on July 24, 2017 (GMT +0700)
Christmas Island

Weather History for YPXM - September, 2013

Change the Weather History Date:

Wednesday, September 18, 2013

  Actual Average Record
Temperature  
Mean Temperature 75 °F -  
Max Temperature 79 °F 76 °F 80 °F (2012)
Min Temperature 71 °F 71 °F 69 °F (2003)
Cooling Degree Days 10    
Growing Degree Days 25 (Base 50)    
Moisture  
Dew Point 69 °F    
Average Humidity 79    
Maximum Humidity 88    
Minimum Humidity 71    
Precipitation  
Precipitation 0.01 in - - ()
Sea Level Pressure  
Sea Level Pressure 29.92 in    
Wind  
Wind Speed 12 mph ()    
Max Wind Speed 16 mph    
Max Gust Speed -    
Visibility 6.2 miles    
Events      
Averages and records for this station are not official NWS values.
T = Trace of Precipitation, MM = Missing Value Source: Averaged Metar Reports

Daily Weather History Graph

Daily Weather History Graph

Search for Another Location

Airport or City:

Trip Planner

Search our weather history database for the weather conditions in past years. The results will help you decide how hot, cold, wet, or windy it might be!

Date:

Astronomy

Sep. 18, 2013 Rise Set
Actual Time 5:49 AM +07 5:53 PM +07
Civil Twilight 5:28 AM +07 6:14 PM +07
Nautical Twilight 5:04 AM +07 6:38 PM +07
Astronomical Twilight 4:39 AM +07 7:03 PM +07
Moon 4:51 PM +07 (9/18) 4:31 AM +07 (9/18)
Length of Visible Light 12h 45m
Length of Day
12h 03m
Waxing Gibbous, 98% of the Moon is Illuminated
Sep 18
Waxing Gibbous
Sep 19
Full
Sep 27
Last Quarter
Oct 5
New
Oct 12
First Quarter

Hourly Weather History & Observations

Time (+07) Temp. Dew Point Humidity Pressure Visibility Wind Dir Wind Speed Gust Speed Precip Events Conditions
12:00 AM 74 °F 67 °F 74% 29.93 in - SE 12.7 mph - -   Overcast
12:00 AM 73.4 °F 68.0 °F 83% 29.95 in 6.2 mi SE 12.7 mph - N/A   Overcast
1:00 AM 74 °F 68 °F 76% 29.91 in - SE 11.5 mph - -  
1:00 AM 73.4 °F 68.0 °F 83% 29.95 in - SE 11.5 mph - N/A   Overcast
2:00 AM 73.4 °F 68.0 °F 83% 29.92 in - ESE 12.7 mph - N/A   Overcast
3:00 AM 74 °F 67 °F 74% 29.89 in - SE 11.5 mph - -   Overcast
3:00 AM 73.4 °F 68.0 °F 83% 29.92 in - SE 11.5 mph - N/A   Overcast
4:00 AM 74 °F 67 °F 73% 29.89 in - ESE 11.5 mph - -  
4:00 AM 73.4 °F 68.0 °F 83% 29.92 in - ESE 11.5 mph - N/A   Overcast
5:00 AM 73.4 °F 68.0 °F 83% 29.92 in - ESE 11.5 mph - N/A   Overcast
6:00 AM 74 °F 68 °F 76% 29.92 in - ESE 10.4 mph - -   Overcast
6:00 AM 73.4 °F 68.0 °F 83% 29.95 in - ESE 10.4 mph - N/A   Overcast
7:00 AM 74 °F 68 °F 77% 29.94 in - ESE 11.5 mph - -  
7:00 AM 73.4 °F 68.0 °F 83% 29.98 in - ESE 11.5 mph - N/A   Overcast
8:00 AM 75.2 °F 68.0 °F 78% 29.98 in - ESE 11.5 mph - N/A   Overcast
9:00 AM 76 °F 68 °F 71% 29.96 in - ESE 13.8 mph - -   Overcast
9:00 AM 77.0 °F 68.0 °F 74% 30.01 in 6.2 mi ESE 13.8 mph - N/A   Overcast
10:00 AM 78 °F 70 °F 71% 29.96 in - ESE 15.0 mph - -  
10:00 AM 78.8 °F 69.8 °F 74% 29.98 in 6.2 mi ESE 15.0 mph - N/A   Mostly Cloudy
11:00 AM 77.0 °F 71.6 °F 83% 29.98 in 6.2 mi ESE 16.1 mph - N/A   Mostly Cloudy
12:00 PM 78 °F 71 °F 75% 29.91 in - SE 12.7 mph - -   Overcast
12:00 PM 77.0 °F 71.6 °F 83% 29.95 in 6.2 mi SE 12.7 mph - N/A   Mostly Cloudy
1:00 PM 79 °F 72 °F 72% 29.88 in - ESE 13.8 mph - -  
1:00 PM 78.8 °F 71.6 °F 78% 29.92 in 6.2 mi ESE 13.8 mph - N/A   Mostly Cloudy
2:00 PM 78.8 °F 71.6 °F 78% 29.89 in 6.2 mi ESE 13.8 mph - N/A   Mostly Cloudy
3:00 PM 76 °F 70 °F 76% 29.83 in - SE 12.7 mph - -   Overcast
3:00 PM 75.2 °F 69.8 °F 83% 29.86 in 6.2 mi SE 12.7 mph - N/A   Mostly Cloudy
4:00 PM 76 °F 70 °F 75% 29.83 in - ESE 15.0 mph - -  
4:00 PM 77.0 °F 69.8 °F 78% 29.86 in 6.2 mi ESE 15.0 mph - N/A   Mostly Cloudy
5:00 PM 75.2 °F 69.8 °F 83% 29.86 in 6.2 mi SE 12.7 mph - N/A   Scattered Clouds
6:00 PM 74 °F 68 °F 76% 29.85 in - SE 13.8 mph - -  
6:00 PM 73.4 °F 68.0 °F 83% 29.89 in 6.2 mi SE 13.8 mph - N/A   Scattered Clouds
7:00 PM 74 °F 68 °F 76% 29.86 in - SE 15.0 mph - -  
7:00 PM 73.4 °F 68.0 °F 83% 29.89 in 6.2 mi SE 15.0 mph - N/A   Mostly Cloudy
8:00 PM 73.4 °F 68.0 °F 83% 29.92 in - SE 13.8 mph - N/A   Mostly Cloudy
9:00 PM 74 °F 69 °F 79% 29.90 in - ESE 15.0 mph - -  
9:00 PM 73.4 °F 69.8 °F 88% 29.92 in - ESE 15.0 mph - N/A   Overcast
10:00 PM 74 °F 69 °F 78% 29.90 in - ESE 13.8 mph - -  
10:00 PM 73.4 °F 68.0 °F 83% 29.92 in - ESE 13.8 mph - N/A   Overcast
11:00 PM 73.4 °F 68.0 °F 83% 29.95 in - ESE 13.8 mph - N/A   Mostly Cloudy
11:25 PM 73.4 °F 68.0 °F 83% 29.92 in - ESE 12.7 mph - N/A   Overcast
11:35 PM 73.4 °F 68.0 °F 83% 29.92 in - ESE 11.5 mph - N/A   Overcast